SCP
0 0 0 0 0 0 0 0 0 0 0 -0 -0 -0 -0 -0 -0 -0 0 0 0 0 0 0 0 0 0 0 0 0 0 0 0 0 0 0 0 0 0 0 0 0 0 0
0 0 0 0 0 0 0 0 0 0 0 0 0 0 0 0 0 0 -0 0 0 0 0 0 0 0 0 0 0 0 0 0 0 0 0 0 0 0 0 0 0 0 0 0
0 0 0 0 0 0 0 0 0 0 0 0 0 0 0 0 0 0 0 0 0 0 0 0 0 0 0 0 0 0 0 0 0 0 0 0 0 0 0 0 0 0 0 0
0 0 0 0 0 0 0 0 0 0 0 0 0 0 0 0 0 0 0 0 0 0 0 0 0 0 0 0 0 0 0 0 0 0 0 0 0 0 0 0 0 0 0 0
0 0 0 0 0 0 0 0 0 0 0 0 0 0 0 0 0 0 0 0 0 0 0 0 0 0 0 0 0 0 0 0 0 0 0 0 0 0 0 0 0 0 0 0
0 0 0 0 0 -0 0 0 -0 0 0 0 0 -0 0 0 0 0 0 0 0 0 0 0 0 0 0 0 0 0 0 0 0 0 0 0 0 0 0 0 0 0 0 0
0 0 0 0 0 0 0 0 0 0 0 0 0 0 0 0 0 0 0 0 0 0 0 0 0 0 0 0 0 0 0 0 0 0 0 0 0 0 0 0 0 0 0 0
0 0 0 0 0 0 0 0 -0 -0 -0 -0 -0 0 0 0 0 0 0 -0 0 0 0 0 0 0 0 0 0 0 0 0 0 0 0 0 0 0 0 0 0 0 0 0
0 0 0 0 0 0 0 0 0 0 0 0 0 0 0 0 0 0 -0 -0 0 0 0 0 0 0 0 0 0 0 0 0 0 0 0 0 0 0 0 0 0 0 0 0
0 0 0 0 0 -0 -0 0 0 -0 -0 -0 0 0 0 0 0 0 0 0 0 0 0 0 0 0 0 0 0 0 0 0 0 0 0 0 0 0 0 0 0 0 0 0
-0 -0 0 0 0 -0 0 0 0 0 -0 0 -0 -0 -0 0 0 0 0 0 0 0 0 0 0 0 0 0 0 0 0 0 0 0 0 0 0 0 0 0 0 0 0 0
-0 -0 -0 -0 -0 -0 0 0 0 0 0 0 0 -0 -0 0 0 0 0 0 0 0 0 0 0 0 0 -0 -0 0 0 0 0 0 0 0 0 0 0 0 0 0 0 0
0 0 0 0 0 -0 -0 -0 0 0 0 0 0 0 0 0 0 0 0 0 0 0 0 0 0 0 0 0 0 0 0 0 0 0 0 0 0 0 0 0 0 0 0 0
0 0 0 0 0 0 0 0 0 0 0 0 0 0 0 0 0 0 0 0 0 0 0 0 0 0 0 0 0 0 0 0 0 0 0 0 0 0 0 0 0 0 0 0
0 0 0 0 0 0 0 0 0 0 0 0 0 0 0 0 0 0 0 0 0 0 0 0 0 0 0 0 0 0 0 0 0 0 0 0 0 0 0 0 0 0 0 0
0 0 0 0 0 0 0 0 0 0 0 0 0 0 0 0 0 0 0 0 0 0 0 0 0 0 0 0 0 0 0 0 0 0 0 0 0 0 0 0 0 0 0 0
0 0 0 0 0 0 0 0 0 0 0 0 0 0 0 0 0 0 0 0 0 0 0 0 0 0 0 0 0 0 0 0 0 0 0 0 0 0 0 0 0 0 0 0
0 0 0 0 0 0 0 0 0 0 0 0 0 0 0 0 0 0 0 0 0 0 0 0 0 0 0 0 0 0 0 0 0 0 0 0 0 0 0 0 0 0 0 0
0 0 0 -0 -0 0 -0 0 0 0 0 0 0 0 0 0 0 0 0 0 0 0 0 0 0 0 0 0 0 0 0 0 0 0 0 0 0 0 0 0 0 0 0 0
-0 0 0 -0 0 0 0 0 0 0 0 0 0 0 0 0 0 0 0 0 0 0 0 0 0 0 0 0 0 0 0 0 0 0 0 0 0 0 0 0 0 0 0 0
-0 -0 -0 -0 -0 0 0 0 0 0 0 0 0 0 0 0 0 0 0 0 0 0 0 0 0 0 0 0 0 0 0 0 0 0 0 0 0 0 0 0 0 0 0 0
-0 -0 -0 -0 -0 -0 -0 0 0 -0 -0 0 0 0 0 0 0 0 0 0 0 0 0 0 0 0 0 0 0 0 0 0 0 0 0 0 0 0 0 0 0 0 0 0
0 0 -0 0 0 0 0 -0 -0 -0 0 0 -0 0 0 0 0 0 0 0 0 0 0 0 0 0 0 0 0 0 0 0 0 0 0 0 0 0 0 0 0 0 0 0
0 0 0 0 0 0 0 0 0 0 0 0 0 0 0 0 0 0 0 0 0 0 0 0 0 0 0 0 0 0 0 0 0 0 0 0 0 0 0 0 0 0 0 0
-0 -0 0 0 0 0 0 0 0 0 0 0 0 0 0 0 0 0 0 0 0 0 0 0 0 0 0 0 0 0 0 0 0 0 0 0 0 0 0 0 0 0 0 0
-0 -0 -0 -0 0 0 0 0 0 0 0 0 0 0 0 0 0 0 0 0 0 0 0 0 0 0 0 0 0 0 0 0 0 0 0 0 0 0 0 0 0 0 0 0
-0 -0 -0 -0 -0 0 -0 -0 -0 -0 0 0 -0 0 0 0 0 0 0 0 0 0 0 0 0 0 0 0 0 0 0 0 0 0 0 0 0 0 0 0 0 0 0 0
Wind_Speed_500mb
12 15 10 13 13 16 19 29 21 3 35 18 21 24 45 63 83 83 72 55 48 47 54 56 59 63 65 69 72 74 77 79 78 74 73 72 71 69 68 68 60 49 42 33
9 15 16 25 28 27 27 32 34 28 63 33 66 70 66 74 74 74 82 76 70 68 48 59 65 67 68 70 73 76 79 83 79 78 77 77 77 75 75 75 69 61 51 39
11 9 18 32 29 39 37 34 20 33 58 44 38 41 61 71 68 73 83 81 73 66 60 66 61 63 71 72 73 76 80 81 82 83 83 83 81 80 81 84 78 73 61 51
9 6 27 10 1 8 31 32 31 43 39 47 52 63 53 72 83 89 94 91 84 77 69 55 56 53 52 69 76 78 79 81 83 86 87 87 86 87 87 88 88 81 71 60
12 14 43 63 47 19 8 18 9 18 32 60 57 27 49 30 59 56 57 64 66 62 57 61 57 52 52 57 66 80 83 81 83 87 92 90 91 92 92 91 92 89 79 67
15 10 27 6 13 36 18 20 31 27 32 16 7 5 10 58 60 58 51 43 40 38 40 44 49 54 62 60 60 70 73 80 82 88 91 93 91 94 94 93 94 91 82 73
37 30 29 12 22 28 6 13 11 28 17 5 9 16 46 60 56 48 50 29 20 13 15 22 29 37 50 60 71 66 61 65 78 89 89 87 89 94 95 95 94 91 86 77
17 29 48 32 5 21 24 51 52 58 56 59 65 69 73 74 63 39 39 28 21 24 23 21 21 27 33 43 44 48 57 67 70 71 79 89 90 88 91 92 93 93 90 82
9 8 37 27 21 46 42 44 48 60 79 68 71 69 63 63 63 44 34 35 31 32 34 27 25 27 29 27 29 34 42 48 56 59 62 71 78 83 85 88 90 93 93 85
15 23 45 87 107 73 55 70 84 62 67 62 65 66 60 60 56 61 59 49 40 36 38 41 31 26 26 26 28 29 32 37 44 50 53 57 62 70 77 82 87 91 92 84
31 42 66 79 70 67 89 84 79 88 84 92 75 64 67 67 62 64 62 56 54 48 40 34 28 25 27 30 30 30 30 30 35 42 47 50 54 60 67 71 77 84 89 83
33 70 58 74 96 82 70 82 92 88 88 86 87 88 86 92 78 71 69 59 46 47 47 37 28 27 28 32 37 40 42 40 36 37 43 47 51 55 59 60 62 69 67 64
79 99 105 90 88 90 92 95 96 95 83 73 85 83 91 87 90 78 68 60 55 51 40 35 37 37 35 40 47 50 52 56 51 43 40 47 51 55 60 59 60 65 67 63
86 82 88 94 90 105 88 86 86 89 89 83 81 101 93 90 91 87 78 71 66 60 55 49 45 45 43 46 47 50 57 57 55 53 47 46 51 56 61 66 72 71 67 61
109 117 111 116 113 100 99 94 96 100 95 97 105 87 95 87 89 89 74 68 62 60 62 59 53 52 42 42 48 50 55 57 52 52 50 47 50 54 60 64 64 62 58 51
91 89 97 97 103 111 101 96 90 94 94 95 91 94 82 78 85 78 75 66 57 65 63 60 56 55 49 43 46 49 47 50 50 51 48 46 49 56 63 64 63 58 52 47
75 82 78 80 85 94 95 92 95 94 92 89 94 95 85 77 85 88 81 73 72 66 59 59 63 55 48 45 52 50 45 44 47 46 48 47 52 60 62 62 58 54 49 44
86 92 98 93 90 86 95 96 94 90 86 93 93 92 86 79 79 87 89 76 79 79 69 62 57 52 49 55 52 50 42 39 45 45 47 51 56 58 59 57 54 50 46 45
52 59 64 71 70 73 90 87 88 94 93 92 87 83 82 83 88 90 87 79 86 84 78 67 56 52 57 60 65 61 52 46 45 49 50 54 58 60 60 57 52 48 46 45
81 80 76 82 82 78 80 76 68 84 89 86 82 79 83 89 91 91 87 86 92 91 78 68 59 57 57 57 52 58 58 55 52 54 56 61 64 64 60 54 50 46 45 42
73 67 68 74 76 74 78 67 64 68 69 70 76 80 83 86 85 86 81 81 108 92 78 60 53 58 60 63 62 62 62 61 60 58 60 66 66 61 55 50 47 44 42 39
64 68 67 72 78 78 71 67 66 63 64 60 59 68 76 82 84 88 90 87 84 81 76 61 48 61 65 66 60 57 55 53 52 53 57 57 54 50 47 46 44 42 39 35
61 60 55 52 58 59 63 62 55 49 50 50 52 54 60 68 66 68 76 71 68 71 74 54 51 60 57 51 46 47 46 47 49 53 54 52 49 45 44 42 40 35 30 25
47 43 43 41 38 36 39 40 38 32 27 27 28 31 28 32 51 57 51 50 47 45 42 34 34 32 30 34 39 42 44 47 50 51 51 50 50 49 48 42 34 26 20 21
43 40 46 50 53 47 38 32 26 27 29 31 31 27 19 9 14 21 20 26 28 19 18 15 15 22 30 35 39 44 48 50 52 56 56 53 47 39 33 29 26 22 20 27
57 52 56 58 63 57 56 56 58 57 58 60 61 59 55 52 50 48 46 44 38 35 36 33 34 39 43 45 48 50 52 50 44 40 38 35 32 27 23 18 16 20 21 22
57 59 63 67 69 70 69 73 79 77 75 78 81 78 76 75 75 74 71 72 71 69 65 62 57 54 51 47 43 41 40 36 31 29 27 24 18 15 15 16 15 12 14 16
Wind_Direction_500mb
245 237 215 219 211 196 196 229 217 295 251 265 264 272 286 297 298 297 297 299 300 281 258 250 247 245 241 240 238 235 234 234 233 234 234 234 233 229 225 223 225 228 235 243
260 283 241 254 241 238 231 237 250 261 267 267 271 272 275 277 281 284 289 292 287 281 287 260 255 252 247 246 244 241 239 238 237 237 236 235 234 231 228 226 226 229 234 242
280 269 320 279 238 231 242 228 228 238 257 274 271 263 267 277 282 282 285 290 290 284 280 271 277 261 253 251 250 246 245 244 242 240 239 237 236 233 230 229 229 232 235 240
260 28 268 265 288 237 234 246 238 252 266 266 269 276 296 292 286 283 283 282 281 280 281 277 270 264 261 256 254 252 250 248 246 245 242 240 238 236 233 231 231 233 236 241
241 226 272 280 286 276 209 269 266 243 258 262 274 310 301 331 337 320 301 292 290 289 278 268 267 258 258 258 258 256 254 252 251 249 247 243 241 239 236 234 233 234 236 239
223 220 252 352 4 236 257 287 249 283 272 272 352 332 268 329 336 327 324 302 300 297 275 264 259 265 267 261 262 257 257 257 256 254 253 250 248 245 242 238 237 235 236 239
234 240 257 231 275 310 259 257 304 347 359 320 200 256 310 326 327 321 333 326 325 323 308 290 273 266 263 262 259 262 262 261 257 257 258 259 255 251 248 242 238 235 235 237
231 236 248 1 323 245 324 339 5 359 349 337 326 312 310 312 317 313 330 324 312 323 322 317 301 291 285 274 275 272 264 259 260 261 259 257 256 254 249 244 239 234 233 233
287 304 312 323 335 318 299 317 322 328 327 328 321 335 326 314 312 296 309 311 307 305 308 315 314 311 312 317 296 280 271 266 263 263 263 260 257 254 250 244 238 233 231 231
292 279 304 309 310 311 298 303 307 312 315 313 315 322 335 340 318 311 306 304 303 297 299 305 310 311 315 319 317 306 290 277 270 265 263 261 256 252 249 245 237 232 230 230
250 261 278 280 284 291 295 299 301 307 310 308 313 309 319 321 325 326 321 300 293 291 292 299 308 319 328 328 323 321 314 302 283 272 265 260 256 253 252 250 244 239 233 233
259 271 267 275 279 284 289 292 290 290 297 295 303 302 306 308 312 317 315 318 312 285 289 296 307 320 330 332 333 330 321 311 301 283 270 261 253 249 245 241 241 234 234 234
253 256 264 265 271 278 272 273 278 285 289 284 292 288 293 295 295 298 303 306 306 314 313 304 306 309 315 321 322 321 320 320 304 291 271 258 249 241 235 227 215 217 221 226
263 266 272 270 268 269 274 273 276 280 285 282 282 288 290 284 284 288 290 288 297 300 292 290 290 291 296 298 300 304 306 301 294 286 274 260 249 241 231 222 214 214 218 225
258 256 259 270 278 274 272 271 273 276 274 276 280 278 283 275 274 284 288 292 291 287 278 280 283 279 281 277 278 285 291 287 282 275 265 255 248 239 227 222 221 221 218 221
272 269 266 264 266 271 271 270 266 266 269 271 273 273 270 269 279 283 282 288 288 288 285 284 280 278 275 271 270 276 286 283 275 269 260 249 236 227 221 218 216 217 221 224
277 274 268 265 267 270 271 270 267 264 266 268 269 269 267 262 274 276 280 279 277 285 286 284 281 286 274 268 270 272 276 279 271 264 255 244 232 224 219 216 217 222 224 225
275 273 275 273 274 277 280 276 271 270 267 267 266 266 262 267 265 275 277 281 281 283 282 280 286 286 282 269 276 270 275 279 266 257 248 240 232 225 220 219 221 220 218 218
305 299 292 282 277 288 292 283 276 278 272 264 261 261 265 269 270 272 274 278 279 279 275 280 289 286 280 270 259 260 265 266 260 249 241 233 223 218 217 218 218 217 215 215
303 300 297 290 293 293 291 289 287 276 268 265 262 261 261 263 265 268 270 271 272 272 275 280 285 281 271 276 266 248 255 251 245 238 231 223 218 216 215 215 213 209 206 206
308 301 300 293 297 299 296 294 295 294 289 274 265 261 261 264 265 265 263 264 270 274 275 276 281 277 274 277 268 255 253 244 236 228 221 215 212 210 208 205 202 200 198 197
308 308 309 312 312 308 305 302 302 294 287 282 271 264 264 267 270 268 265 266 277 278 276 274 276 279 279 274 263 247 238 232 226 219 213 208 204 201 198 193 189 186 186 191
321 322 321 314 311 306 306 310 312 309 304 301 294 283 270 265 269 263 265 271 274 272 270 272 272 273 273 262 242 227 219 211 206 202 198 195 190 186 183 177 175 179 188 207
341 350 348 345 339 339 340 335 332 333 337 336 333 327 311 274 260 260 266 269 269 263 260 259 260 258 246 227 211 198 191 189 186 182 176 172 166 168 171 176 179 182 195 218
8 17 22 25 20 19 20 21 25 31 40 46 50 58 63 79 141 111 131 126 133 155 159 171 174 175 180 182 178 172 163 161 160 159 157 158 159 162 165 174 184 193 217 232
30 35 38 43 39 38 46 50 52 57 63 66 68 71 79 89 101 109 116 124 127 126 123 127 138 146 142 143 145 143 141 141 146 148 152 155 159 163 166 171 193 211 221 232
48 47 52 53 56 51 54 61 58 56 67 70 73 75 78 80 81 84 88 90 90 92 94 96 99 104 110 114 113 112 114 116 119 123 122 120 124 142 172 188 196 207 225 240
Wind_Speed_850mb
12 15 10 13 13 16 19 29 21 3 35 18 21 24 45 63 83 83 72 55 48 47 54 56 59 63 65 69 72 74 77 79 78 74 73 72 71 69 68 68 60 49 42 33
9 15 16 25 28 27 27 32 34 28 63 33 66 70 66 74 74 74 82 76 70 68 48 59 65 67 68 70 73 76 79 83 79 78 77 77 77 75 75 75 69 61 51 39
11 9 18 32 29 39 37 34 20 33 58 44 38 41 61 71 68 73 83 81 73 66 60 66 61 63 71 72 73 76 80 81 82 83 83 83 81 80 81 84 78 73 61 51
9 6 27 10 1 8 31 32 31 43 39 47 52 63 53 72 83 89 94 91 84 77 69 55 56 53 52 69 76 78 79 81 83 86 87 87 86 87 87 88 88 81 71 60
12 14 43 63 47 19 8 18 9 18 32 60 57 27 49 30 59 56 57 64 66 62 57 61 57 52 52 57 66 80 83 81 83 87 92 90 91 92 92 91 92 89 79 67
15 10 27 6 13 36 18 20 31 27 32 16 7 5 10 58 60 58 51 43 40 38 40 44 49 54 62 60 60 70 73 80 82 88 91 93 91 94 94 93 94 91 82 73
37 30 29 12 22 28 6 13 11 28 17 5 9 16 46 60 56 48 50 29 20 13 15 22 29 37 50 60 71 66 61 65 78 89 89 87 89 94 95 95 94 91 86 77
17 29 48 32 5 21 24 51 52 58 56 59 65 69 73 74 63 39 39 28 21 24 23 21 21 27 33 43 44 48 57 67 70 71 79 89 90 88 91 92 93 93 90 82
9 8 37 27 21 46 42 44 48 60 79 68 71 69 63 63 63 44 34 35 31 32 34 27 25 27 29 27 29 34 42 48 56 59 62 71 78 83 85 88 90 93 93 85
15 23 45 87 107 73 55 70 84 62 67 62 65 66 60 60 56 61 59 49 40 36 38 41 31 26 26 26 28 29 32 37 44 50 53 57 62 70 77 82 87 91 92 84
31 42 66 79 70 67 89 84 79 88 84 92 75 64 67 67 62 64 62 56 54 48 40 34 28 25 27 30 30 30 30 30 35 42 47 50 54 60 67 71 77 84 89 83
33 70 58 74 96 82 70 82 92 88 88 86 87 88 86 92 78 71 69 59 46 47 47 37 28 27 28 32 37 40 42 40 36 37 43 47 51 55 59 60 62 69 67 64
79 99 105 90 88 90 92 95 96 95 83 73 85 83 91 87 90 78 68 60 55 51 40 35 37 37 35 40 47 50 52 56 51 43 40 47 51 55 60 59 60 65 67 63
86 82 88 94 90 105 88 86 86 89 89 83 81 101 93 90 91 87 78 71 66 60 55 49 45 45 43 46 47 50 57 57 55 53 47 46 51 56 61 66 72 71 67 61
109 117 111 116 113 100 99 94 96 100 95 97 105 87 95 87 89 89 74 68 62 60 62 59 53 52 42 42 48 50 55 57 52 52 50 47 50 54 60 64 64 62 58 51
91 89 97 97 103 111 101 96 90 94 94 95 91 94 82 78 85 78 75 66 57 65 63 60 56 55 49 43 46 49 47 50 50 51 48 46 49 56 63 64 63 58 52 47
75 82 78 80 85 94 95 92 95 94 92 89 94 95 85 77 85 88 81 73 72 66 59 59 63 55 48 45 52 50 45 44 47 46 48 47 52 60 62 62 58 54 49 44
86 92 98 93 90 86 95 96 94 90 86 93 93 92 86 79 79 87 89 76 79 79 69 62 57 52 49 55 52 50 42 39 45 45 47 51 56 58 59 57 54 50 46 45
52 59 64 71 70 73 90 87 88 94 93 92 87 83 82 83 88 90 87 79 86 84 78 67 56 52 57 60 65 61 52 46 45 49 50 54 58 60 60 57 52 48 46 45
81 80 76 82 82 78 80 76 68 84 89 86 82 79 83 89 91 91 87 86 92 91 78 68 59 57 57 57 52 58 58 55 52 54 56 61 64 64 60 54 50 46 45 42
73 67 68 74 76 74 78 67 64 68 69 70 76 80 83 86 85 86 81 81 108 92 78 60 53 58 60 63 62 62 62 61 60 58 60 66 66 61 55 50 47 44 42 39
64 68 67 72 78 78 71 67 66 63 64 60 59 68 76 82 84 88 90 87 84 81 76 61 48 61 65 66 60 57 55 53 52 53 57 57 54 50 47 46 44 42 39 35
61 60 55 52 58 59 63 62 55 49 50 50 52 54 60 68 66 68 76 71 68 71 74 54 51 60 57 51 46 47 46 47 49 53 54 52 49 45 44 42 40 35 30 25
47 43 43 41 38 36 39 40 38 32 27 27 28 31 28 32 51 57 51 50 47 45 42 34 34 32 30 34 39 42 44 47 50 51 51 50 50 49 48 42 34 26 20 21
43 40 46 50 53 47 38 32 26 27 29 31 31 27 19 9 14 21 20 26 28 19 18 15 15 22 30 35 39 44 48 50 52 56 56 53 47 39 33 29 26 22 20 27
57 52 56 58 63 57 56 56 58 57 58 60 61 59 55 52 50 48 46 44 38 35 36 33 34 39 43 45 48 50 52 50 44 40 38 35 32 27 23 18 16 20 21 22
57 59 63 67 69 70 69 73 79 77 75 78 81 78 76 75 75 74 71 72 71 69 65 62 57 54 51 47 43 41 40 36 31 29 27 24 18 15 15 16 15 12 14 16
Wind_Direction_850mb
245 237 215 219 211 196 196 229 217 295 251 265 264 272 286 297 298 297 297 299 300 281 258 250 247 245 241 240 238 235 234 234 233 234 234 234 233 229 225 223 225 228 235 243
260 283 241 254 241 238 231 237 250 261 267 267 271 272 275 277 281 284 289 292 287 281 287 260 255 252 247 246 244 241 239 238 237 237 236 235 234 231 228 226 226 229 234 242
280 269 320 279 238 231 242 228 228 238 257 274 271 263 267 277 282 282 285 290 290 284 280 271 277 261 253 251 250 246 245 244 242 240 239 237 236 233 230 229 229 232 235 240
260 28 268 265 288 237 234 246 238 252 266 266 269 276 296 292 286 283 283 282 281 280 281 277 270 264 261 256 254 252 250 248 246 245 242 240 238 236 233 231 231 233 236 241
241 226 272 280 286 276 209 269 266 243 258 262 274 310 301 331 337 320 301 292 290 289 278 268 267 258 258 258 258 256 254 252 251 249 247 243 241 239 236 234 233 234 236 239
223 220 252 352 4 236 257 287 249 283 272 272 352 332 268 329 336 327 324 302 300 297 275 264 259 265 267 261 262 257 257 257 256 254 253 250 248 245 242 238 237 235 236 239
234 240 257 231 275 310 259 257 304 347 359 320 200 256 310 326 327 321 333 326 325 323 308 290 273 266 263 262 259 262 262 261 257 257 258 259 255 251 248 242 238 235 235 237
231 236 248 1 323 245 324 339 5 359 349 337 326 312 310 312 317 313 330 324 312 323 322 317 301 291 285 274 275 272 264 259 260 261 259 257 256 254 249 244 239 234 233 233
287 304 312 323 335 318 299 317 322 328 327 328 321 335 326 314 312 296 309 311 307 305 308 315 314 311 312 317 296 280 271 266 263 263 263 260 257 254 250 244 238 233 231 231
292 279 304 309 310 311 298 303 307 312 315 313 315 322 335 340 318 311 306 304 303 297 299 305 310 311 315 319 317 306 290 277 270 265 263 261 256 252 249 245 237 232 230 230
250 261 278 280 284 291 295 299 301 307 310 308 313 309 319 321 325 326 321 300 293 291 292 299 308 319 328 328 323 321 314 302 283 272 265 260 256 253 252 250 244 239 233 233
259 271 267 275 279 284 289 292 290 290 297 295 303 302 306 308 312 317 315 318 312 285 289 296 307 320 330 332 333 330 321 311 301 283 270 261 253 249 245 241 241 234 234 234
253 256 264 265 271 278 272 273 278 285 289 284 292 288 293 295 295 298 303 306 306 314 313 304 306 309 315 321 322 321 320 320 304 291 271 258 249 241 235 227 215 217 221 226
263 266 272 270 268 269 274 273 276 280 285 282 282 288 290 284 284 288 290 288 297 300 292 290 290 291 296 298 300 304 306 301 294 286 274 260 249 241 231 222 214 214 218 225
258 256 259 270 278 274 272 271 273 276 274 276 280 278 283 275 274 284 288 292 291 287 278 280 283 279 281 277 278 285 291 287 282 275 265 255 248 239 227 222 221 221 218 221
272 269 266 264 266 271 271 270 266 266 269 271 273 273 270 269 279 283 282 288 288 288 285 284 280 278 275 271 270 276 286 283 275 269 260 249 236 227 221 218 216 217 221 224
277 274 268 265 267 270 271 270 267 264 266 268 269 269 267 262 274 276 280 279 277 285 286 284 281 286 274 268 270 272 276 279 271 264 255 244 232 224 219 216 217 222 224 225
275 273 275 273 274 277 280 276 271 270 267 267 266 266 262 267 265 275 277 281 281 283 282 280 286 286 282 269 276 270 275 279 266 257 248 240 232 225 220 219 221 220 218 218
305 299 292 282 277 288 292 283 276 278 272 264 261 261 265 269 270 272 274 278 279 279 275 280 289 286 280 270 259 260 265 266 260 249 241 233 223 218 217 218 218 217 215 215
303 300 297 290 293 293 291 289 287 276 268 265 262 261 261 263 265 268 270 271 272 272 275 280 285 281 271 276 266 248 255 251 245 238 231 223 218 216 215 215 213 209 206 206
308 301 300 293 297 299 296 294 295 294 289 274 265 261 261 264 265 265 263 264 270 274 275 276 281 277 274 277 268 255 253 244 236 228 221 215 212 210 208 205 202 200 198 197
308 308 309 312 312 308 305 302 302 294 287 282 271 264 264 267 270 268 265 266 277 278 276 274 276 279 279 274 263 247 238 232 226 219 213 208 204 201 198 193 189 186 186 191
321 322 321 314 311 306 306 310 312 309 304 301 294 283 270 265 269 263 265 271 274 272 270 272 272 273 273 262 242 227 219 211 206 202 198 195 190 186 183 177 175 179 188 207
341 350 348 345 339 339 340 335 332 333 337 336 333 327 311 274 260 260 266 269 269 263 260 259 260 258 246 227 211 198 191 189 186 182 176 172 166 168 171 176 179 182 195 218
8 17 22 25 20 19 20 21 25 31 40 46 50 58 63 79 141 111 131 126 133 155 159 171 174 175 180 182 178 172 163 161 160 159 157 158 159 162 165 174 184 193 217 232
30 35 38 43 39 38 46 50 52 57 63 66 68 71 79 89 101 109 116 124 127 126 123 127 138 146 142 143 145 143 141 141 146 148 152 155 159 163 166 171 193 211 221 232
48 47 52 53 56 51 54 61 58 56 67 70 73 75 78 80 81 84 88 90 90 92 94 96 99 104 110 114 113 112 114 116 119 123 122 120 124 142 172 188 196 207 225 240